GORIZONT 21 1 20923U 90094A 21063.58868412 .00000047 00000-0 00000-0 0 9993 2 20923 14.4827 351.8892 0001164 237.4780 331.1160 1.00234534111081 SL-12 R/B(2) 1 20926U 90094D 21063.51478286 .00000092 00000-0 00000-0 0 9995 2 20926 14.2876 351.2657 0036640 98.7909 91.0314 1.00856484111758